Regional Weather Roundup
Issued by NWS

Home | Current Version | Previous Version | Graphics & Text | Print | Product List | Glossary On
Versions: 1 2 3 4 5 6 7 8 9 10 11 12 13 14 15 16 17 18 19 20 21 22 23 24 25 26 27 28 29 30 31 32 33 34 35 36 37 38 39 40 41 42 43 44 45 46 47 48 49 50
000
ASUS43 KBIS 070210
RWRND

NORTH DAKOTA REGIONAL WEATHER ROUNDUP
NATIONAL WEATHER SERVICE BISMARCK ND
800 PM CST FRI MAR 06 2015

NOTE: "FAIR" INDICATES FEW OR NO CLOUDS BELOW 12,000 FEET WITH NO
SIGNIFICANT WEATHER AND/OR OBSTRUCTIONS TO VISIBILITY.


NDZ001>003-009>011-017-070300-
NORTHWEST NORTH DAKOTA

CITY           SKY/WX    TMP DP  RH WIND       PRES   REMARKS
WILLISTON      MOCLDY    40  29  64 NW16      30.03R
MINOT          LGT RAIN  39  30  70 W29G38    29.91R
MINOT AFB      MOCLDY    38  34  85 NW29G36   29.89R
$$

NDZ018>021-031>035-040>046-070300-
SOUTHWEST NORTH DAKOTA

CITY           SKY/WX    TMP DP  RH WIND       PRES   REMARKS
BISMARCK       CLOUDY    45  30  55 NW10      30.00R
DICKINSON      CLOUDY    43  27  53 NW15      30.02R
GARRISON         N/A     41  30  65 NW24      29.94R
HETTINGER ARPT CLOUDY    37  21  52 W3        30.03R
$$

NDZ004>008-012>016-024-026-027-054-070300-
NORTHEAST NORTH DAKOTA

CITY           SKY/WX    TMP DP  RH WIND       PRES   REMARKS
GRAND FORKS    FLURRIES  36  25  64 SW8       29.89F
GRND FRKS AFB  MOCLDY    36  23  60 S9        29.87F
DEVILS LAKE    MOCLDY    34  27  75 W21       29.84S
$$

NDZ022-023-025-028>030-036>039-047>053-070300-
SOUTHEAST NORTH DAKOTA

CITY           SKY/WX    TMP DP  RH WIND       PRES   REMARKS
FARGO          MOCLDY    35  21  56 S8        29.95F
JAMESTOWN      PTCLDY    33  24  69 SW10      29.90F
$$




USA.gov is the U.S. government's official web portal to all federal, state and local government web resources and services.